Time,TemperatureF,DewpointF,PressureIn,WindDirection,WindDirectionDegrees,WindSpeedMPH,WindSpeedGustMPH,Humidity,HourlyPrecipIn,Conditions,Clouds,dailyrainin,SoftwareType,DateUTC
2013-05-25 00:00:00,32.0,32.0,-100.00,WNW,282,3.0,6.0,100,0.00,,,-99.99,,2013-05-25 07:00:00,
2013-05-25 00:52:00,32.0,32.0,-100.00,WNW,282,3.0,6.0,100,0.00,,,-99.99,,2013-05-25 07:52:00,
2013-05-25 01:00:00,32.0,32.0,-100.00,West,278,3.0,6.0,100,0.00,,,-99.99,,2013-05-25 08:00:00,
2013-05-25 01:52:00,32.0,32.0,-100.00,West,278,3.0,6.0,100,0.00,,,-99.99,,2013-05-25 08:52:00,
2013-05-25 02:00:00,31.0,31.0,-100.00,WNW,284,5.0,7.0,100,0.00,,,-99.99,,2013-05-25 09:00:00,
2013-05-25 02:53:00,31.0,31.0,-100.00,WNW,284,5.0,7.0,100,0.00,,,-99.99,,2013-05-25 09:53:00,
2013-05-25 03:00:00,31.0,31.0,-100.00,West,281,5.0,7.0,100,0.00,,,-99.99,,2013-05-25 10:00:00,
2013-05-25 03:52:00,31.0,31.0,-100.00,West,281,5.0,7.0,100,0.00,,,-99.99,,2013-05-25 10:52:00,
2013-05-25 04:00:00,31.0,31.0,-100.00,West,278,3.0,6.0,99,0.00,,,-99.99,,2013-05-25 11:00:00,
2013-05-25 04:52:00,31.0,31.0,-100.00,West,278,3.0,6.0,99,0.00,,,-99.99,,2013-05-25 11:52:00,
2013-05-25 05:00:00,30.0,30.0,-100.00,WNW,282,5.0,10.0,100,0.00,,,-99.99,,2013-05-25 12:00:00,
2013-05-25 05:52:00,30.0,30.0,-100.00,WNW,282,5.0,10.0,100,0.00,,,-99.99,,2013-05-25 12:52:00,
2013-05-25 06:00:00,30.0,30.0,-100.00,WNW,285,5.0,12.0,99,0.00,,,-99.99,,2013-05-25 13:00:00,
2013-05-25 06:52:00,30.0,30.0,-100.00,WNW,285,5.0,12.0,99,0.00,,,-99.99,,2013-05-25 13:52:00,
2013-05-25 07:00:00,31.0,31.0,-100.00,WNW,284,5.0,12.0,98,0.00,,,-99.99,,2013-05-25 14:00:00,
2013-05-25 07:52:00,31.0,31.0,-100.00,WNW,284,5.0,12.0,98,0.00,,,-99.99,,2013-05-25 14:52:00,
2013-05-25 08:00:00,32.0,30.0,-100.00,West,275,5.0,6.0,92,0.00,,,-99.99,,2013-05-25 15:00:00,
2013-05-25 08:53:00,32.0,30.0,-100.00,West,275,5.0,6.0,92,0.00,,,-99.99,,2013-05-25 15:53:00,
2013-05-25 09:00:00,34.0,32.0,-100.00,WNW,288,3.0,8.0,91,0.00,,,-99.99,,2013-05-25 16:00:00,
2013-05-25 09:52:00,34.0,32.0,-100.00,WNW,288,3.0,8.0,91,0.00,,,-99.99,,2013-05-25 16:52:00,
2013-05-25 10:00:00,35.0,32.0,-100.00,WNW,287,3.0,6.0,89,0.00,,,-99.99,,2013-05-25 17:00:00,
2013-05-25 10:52:00,35.0,32.0,-100.00,WNW,287,3.0,6.0,89,0.00,,,-99.99,,2013-05-25 17:52:00,
2013-05-25 11:00:00,37.0,34.0,-100.00,WNW,289,3.0,5.0,88,0.00,,,-99.99,,2013-05-25 18:00:00,
2013-05-25 11:52:00,37.0,34.0,-100.00,WNW,289,3.0,5.0,88,0.00,,,-99.99,,2013-05-25 18:52:00,
2013-05-25 12:00:00,37.0,34.0,-100.00,WNW,284,3.0,5.0,89,0.00,,,-99.99,,2013-05-25 19:00:00,
2013-05-25 12:52:00,37.0,34.0,-100.00,WNW,284,3.0,5.0,89,0.00,,,-99.99,,2013-05-25 19:52:00,
2013-05-25 13:00:00,41.0,36.0,-100.00,WNW,287,3.0,9.0,82,0.00,,,-99.99,,2013-05-25 20:00:00,
2013-05-25 13:52:00,41.0,36.0,-100.00,WNW,287,3.0,9.0,82,0.00,,,-99.99,,2013-05-25 20:52:00,
2013-05-25 14:00:00,38.0,34.0,-100.00,WNW,285,2.0,5.0,86,0.00,,,-99.99,,2013-05-25 21:00:00,
2013-05-25 14:53:00,38.0,34.0,-100.00,WNW,285,2.0,5.0,86,0.00,,,-99.99,,2013-05-25 21:53:00,
2013-05-25 15:00:00,39.0,35.0,-100.00,WNW,283,2.0,3.0,87,0.00,,,-99.99,,2013-05-25 22:00:00,
2013-05-25 15:52:00,39.0,35.0,-100.00,WNW,283,2.0,3.0,87,0.00,,,-99.99,,2013-05-25 22:52:00,
2013-05-25 16:00:00,41.0,36.0,-100.00,WNW,285,2.0,3.0,83,0.00,,,-99.99,,2013-05-25 23:00:00,
2013-05-25 16:52:00,41.0,36.0,-100.00,WNW,285,2.0,3.0,83,0.00,,,-99.99,,2013-05-25 23:52:00,
2013-05-25 17:00:00,40.0,35.0,-100.00,WNW,285,2.0,3.0,83,0.00,,,-99.99,,2013-05-26 00:00:00,
2013-05-25 17:52:00,40.0,35.0,-100.00,WNW,285,2.0,3.0,83,0.00,,,-99.99,,2013-05-26 00:52:00,
2013-05-25 18:00:00,41.0,36.0,-100.00,West,280,2.0,3.0,82,0.00,,,-99.99,,2013-05-26 01:00:00,
2013-05-25 18:52:00,41.0,36.0,-100.00,West,280,2.0,3.0,82,0.00,,,-99.99,,2013-05-26 01:52:00,
2013-05-25 19:00:00,38.0,36.0,-100.00,WNW,284,2.0,3.0,92,0.00,,,-99.99,,2013-05-26 02:00:00,
2013-05-25 19:52:00,38.0,36.0,-100.00,WNW,284,2.0,3.0,92,0.00,,,-99.99,,2013-05-26 02:52:00,
2013-05-25 20:00:00,36.0,35.0,-100.00,WNW,282,2.0,3.0,95,0.00,,,-99.99,,2013-05-26 03:00:00,
2013-05-25 20:53:00,36.0,35.0,-100.00,WNW,282,2.0,3.0,95,0.00,,,-99.99,,2013-05-26 03:53:00,
2013-05-25 21:00:00,34.0,34.0,-100.00,West,272,2.0,3.0,98,0.00,,,-99.99,,2013-05-26 04:00:00,
2013-05-25 21:52:00,34.0,34.0,-100.00,West,272,2.0,3.0,98,0.00,,,-99.99,,2013-05-26 04:52:00,
2013-05-25 22:00:00,35.0,34.0,-100.00,SSW,213,3.0,6.0,98,0.00,,,-99.99,,2013-05-26 05:00:00,
2013-05-25 22:52:00,35.0,34.0,-100.00,SSW,213,3.0,6.0,98,0.00,,,-99.99,,2013-05-26 05:52:00,
2013-05-25 23:00:00,36.0,35.0,-100.00,ESE,123,3.0,6.0,97,0.00,,,-99.99,,2013-05-26 06:00:00,
2013-05-25 23:52:00,36.0,35.0,-100.00,ESE,123,3.0,6.0,97,0.00,,,-99.99,,2013-05-26 06:52:00,